Time,TemperatureF,DewpointF,PressureIn,WindDirection,WindDirectionDegrees,WindSpeedMPH,WindSpeedGustMPH,Humidity,HourlyPrecipIn,Conditions,Clouds,dailyrainin,SoftwareType,DateUTC
2013-02-25 00:03:00,41.4,32.4,30.15,ESE,107,0.0,0.0,70,0.00,,---,0.00,VWS V14.01,2013-02-25 08:03:00,
2013-02-25 00:08:00,41.3,32.3,30.15,ESE,107,0.0,0.0,70,0.00,,---,0.00,VWS V14.01,2013-02-25 08:08:00,
2013-02-25 00:13:00,41.2,32.2,30.15,ESE,107,0.0,0.0,70,0.00,,---,0.00,VWS V14.01,2013-02-25 08:13:00,
2013-02-25 00:18:00,41.0,32.3,30.15,ESE,107,0.0,0.0,71,0.00,,---,0.00,VWS V14.01,2013-02-25 08:18:00,
2013-02-25 00:23:00,40.9,32.2,30.15,ESE,107,0.0,0.0,71,0.00,,---,0.00,VWS V14.01,2013-02-25 08:23:00,
2013-02-25 00:28:00,40.9,31.9,30.15,ESE,107,0.0,0.0,70,0.00,,---,0.00,VWS V14.01,2013-02-25 08:28:00,
2013-02-25 00:33:00,41.0,32.3,30.15,ESE,107,0.0,0.0,71,0.00,,---,0.00,VWS V14.01,2013-02-25 08:33:00,
2013-02-25 00:38:00,40.9,32.2,30.16,ESE,121,0.0,0.0,71,0.00,,---,0.00,VWS V14.01,2013-02-25 08:38:00,
2013-02-25 00:43:00,40.9,32.2,30.15,South,178,0.0,0.0,71,0.00,,---,0.00,VWS V14.01,2013-02-25 08:43:00,
2013-02-25 00:48:00,40.9,32.2,30.15,South,187,0.0,0.0,71,0.00,,---,0.00,VWS V14.01,2013-02-25 08:48:00,
2013-02-25 00:53:00,40.9,32.2,30.15,South,187,0.0,0.0,71,0.00,,---,0.00,VWS V14.01,2013-02-25 08:53:00,
2013-02-25 00:58:00,40.8,32.1,30.15,SE,138,1.0,0.0,71,0.00,,---,0.00,VWS V14.01,2013-02-25 08:58:00,
2013-02-25 01:03:00,40.8,32.1,30.16,East,98,0.0,0.0,71,0.00,,---,0.00,VWS V14.01,2013-02-25 09:03:00,
2013-02-25 01:08:00,40.7,32.0,30.16,East,99,0.0,0.0,71,0.00,,---,0.00,VWS V14.01,2013-02-25 09:08:00,
2013-02-25 01:13:00,40.6,32.0,30.16,East,98,0.0,0.0,71,0.00,,---,0.00,VWS V14.01,2013-02-25 09:13:00,
2013-02-25 01:19:00,40.7,32.0,30.16,East,99,0.0,0.0,71,0.00,,---,0.00,VWS V14.01,2013-02-25 09:19:00,
2013-02-25 01:24:00,40.7,32.0,30.16,East,99,0.0,0.0,71,0.00,,---,0.00,VWS V14.01,2013-02-25 09:24:00,
2013-02-25 01:29:00,40.8,32.1,30.16,East,98,0.0,0.0,71,0.00,,---,0.00,VWS V14.01,2013-02-25 09:29:00,
2013-02-25 01:34:00,40.8,32.1,30.16,South,186,0.0,0.0,71,0.00,,---,0.00,VWS V14.01,2013-02-25 09:34:00,
2013-02-25 01:39:00,40.8,32.5,30.16,South,186,0.0,0.0,72,0.00,,---,0.00,VWS V14.01,2013-02-25 09:39:00,
2013-02-25 01:44:00,40.7,32.4,30.16,SE,146,0.0,0.0,72,0.00,,---,0.00,VWS V14.01,2013-02-25 09:44:00,
2013-02-25 01:49:00,40.6,32.3,30.16,SE,146,0.0,0.0,72,0.00,,---,0.00,VWS V14.01,2013-02-25 09:49:00,
2013-02-25 01:54:00,40.6,32.3,30.16,SE,136,0.0,0.0,72,0.00,,---,0.00,VWS V14.01,2013-02-25 09:54:00,
2013-02-25 01:59:00,40.4,32.1,30.16,SSW,198,0.0,0.0,72,0.00,,---,0.00,VWS V14.01,2013-02-25 09:59:00,
2013-02-25 02:04:00,40.3,32.0,30.16,ESE,118,0.0,0.0,72,0.00,,---,0.00,VWS V14.01,2013-02-25 10:04:00,
2013-02-25 02:09:00,40.3,32.3,30.16,ESE,118,1.0,0.0,73,0.00,,---,0.00,VWS V14.01,2013-02-25 10:09:00,
2013-02-25 02:14:00,40.2,31.9,30.16,ESE,117,0.0,0.0,72,0.00,,---,0.00,VWS V14.01,2013-02-25 10:14:00,
2013-02-25 02:19:00,40.1,32.2,30.16,East,93,2.0,0.0,73,0.00,,---,0.00,VWS V14.01,2013-02-25 10:19:00,
2013-02-25 02:24:00,40.0,32.1,30.16,SSE,147,0.0,0.0,73,0.00,,---,0.00,VWS V14.01,2013-02-25 10:24:00,
2013-02-25 02:29:00,40.0,32.1,30.16,ESE,123,1.0,0.0,73,0.00,,---,0.00,VWS V14.01,2013-02-25 10:29:00,
2013-02-25 02:34:00,40.0,32.1,30.16,ESE,123,1.0,0.0,73,0.00,,---,0.00,VWS V14.01,2013-02-25 10:34:00,
2013-02-25 02:39:00,40.0,32.1,30.16,SSW,194,0.0,0.0,73,0.00,,---,0.00,VWS V14.01,2013-02-25 10:39:00,
2013-02-25 02:45:00,40.1,32.2,30.16,SSW,194,0.0,0.0,73,0.00,,---,0.00,VWS V14.01,2013-02-25 10:45:00,
2013-02-25 02:50:00,40.2,32.2,30.16,SSW,194,0.0,0.0,73,0.00,,---,0.00,VWS V14.01,2013-02-25 10:50:00,
2013-02-25 02:55:00,40.2,32.2,30.16,SSW,194,0.0,0.0,73,0.00,,---,0.00,VWS V14.01,2013-02-25 10:55:00,
2013-02-25 03:00:00,40.2,31.9,30.16,SSW,205,0.0,0.0,72,0.00,,---,0.00,VWS V14.01,2013-02-25 11:00:00,
2013-02-25 03:05:00,40.2,31.9,30.16,SSW,205,0.0,0.0,72,0.00,,---,0.00,VWS V14.01,2013-02-25 11:05:00,
2013-02-25 03:10:00,40.2,31.9,30.16,SSW,205,0.0,0.0,72,0.00,,---,0.00,VWS V14.01,2013-02-25 11:10:00,
2013-02-25 03:15:00,40.2,31.9,30.16,East,90,0.0,0.0,72,0.00,,---,0.00,VWS V14.01,2013-02-25 11:15:00,
2013-02-25 03:20:00,40.2,31.9,30.16,East,99,0.0,0.0,72,0.00,,---,0.00,VWS V14.01,2013-02-25 11:20:00,
2013-02-25 03:25:00,40.2,31.9,30.16,East,88,1.0,0.0,72,0.00,,---,0.00,VWS V14.01,2013-02-25 11:25:00,
2013-02-25 03:30:00,40.3,32.0,30.16,East,96,0.0,0.0,72,0.00,,---,0.00,VWS V14.01,2013-02-25 11:30:00,
2013-02-25 03:35:00,40.3,32.0,30.17,East,96,0.0,0.0,72,0.00,,---,0.00,VWS V14.01,2013-02-25 11:35:00,
2013-02-25 03:40:00,40.3,32.0,30.17,East,101,1.0,0.0,72,0.00,,---,0.00,VWS V14.01,2013-02-25 11:40:00,
2013-02-25 03:45:00,40.4,31.8,30.16,ESE,115,0.0,0.0,71,0.00,,---,0.00,VWS V14.01,2013-02-25 11:45:00,
2013-02-25 03:50:00,40.5,32.2,30.16,ESE,115,0.0,0.0,72,0.00,,---,0.00,VWS V14.01,2013-02-25 11:50:00,
2013-02-25 03:55:00,40.6,32.0,30.16,SSE,149,0.0,0.0,71,0.00,,---,0.00,VWS V14.01,2013-02-25 11:55:00,
2013-02-25 04:00:00,40.6,32.0,30.16,SSE,148,0.0,0.0,71,0.00,,---,0.00,VWS V14.01,2013-02-25 12:00:00,
2013-02-25 04:05:00,40.5,31.9,30.16,SSW,213,1.0,0.0,71,0.00,,---,0.00,VWS V14.01,2013-02-25 12:05:00,
2013-02-25 04:11:00,40.4,31.8,30.15,SSW,213,0.0,0.0,71,0.00,,---,0.00,VWS V14.01,2013-02-25 12:11:00,
2013-02-25 04:16:00,40.4,31.8,30.15,SSW,213,0.0,0.0,71,0.00,,---,0.00,VWS V14.01,2013-02-25 12:16:00,
2013-02-25 04:21:00,40.4,31.8,30.16,SE,136,1.0,0.0,71,0.00,,---,0.00,VWS V14.01,2013-02-25 12:21:00,
2013-02-25 04:26:00,40.5,31.9,30.16,SE,136,1.0,0.0,71,0.00,,---,0.00,VWS V14.01,2013-02-25 12:26:00,
2013-02-25 04:31:00,40.6,32.0,30.16,ENE,62,1.0,0.0,71,0.00,,---,0.00,VWS V14.01,2013-02-25 12:31:00,
2013-02-25 04:36:00,40.6,32.0,30.16,East,96,0.0,0.0,71,0.00,,---,0.00,VWS V14.01,2013-02-25 12:36:00,
2013-02-25 04:41:00,40.4,31.8,30.16,East,97,0.0,0.0,71,0.00,,---,0.00,VWS V14.01,2013-02-25 12:41:00,
2013-02-25 04:46:00,40.3,31.3,30.15,WNW,298,0.0,0.0,70,0.00,,---,0.00,VWS V14.01,2013-02-25 12:46:00,
2013-02-25 04:51:00,40.3,31.7,30.14,WNW,298,0.0,0.0,71,0.00,,---,0.00,VWS V14.01,2013-02-25 12:51:00,
2013-02-25 04:57:00,40.2,31.9,30.14,WNW,298,0.0,0.0,72,0.00,,---,0.00,VWS V14.01,2013-02-25 12:57:00,
2013-02-25 05:02:00,40.1,31.8,30.14,WNW,298,0.0,0.0,72,0.00,,---,0.00,VWS V14.01,2013-02-25 13:02:00,
2013-02-25 05:07:00,40.2,31.9,30.13,WNW,299,0.0,0.0,72,0.00,,---,0.00,VWS V14.01,2013-02-25 13:07:00,
2013-02-25 05:12:00,40.4,31.8,30.14,ENE,57,1.0,0.0,71,0.00,,---,0.00,VWS V14.01,2013-02-25 13:12:00,
2013-02-25 05:17:00,40.6,31.6,30.15,East,87,0.0,0.0,70,0.00,,---,0.00,VWS V14.01,2013-02-25 13:17:00,
2013-02-25 05:22:00,40.7,31.7,30.15,East,87,0.0,0.0,70,0.00,,---,0.00,VWS V14.01,2013-02-25 13:22:00,
2013-02-25 05:27:00,40.7,31.7,30.15,East,87,0.0,0.0,70,0.00,,---,0.00,VWS V14.01,2013-02-25 13:27:00,
2013-02-25 05:32:00,40.7,31.7,30.15,East,87,0.0,0.0,70,0.00,,---,0.00,VWS V14.01,2013-02-25 13:32:00,
2013-02-25 05:38:00,40.7,31.7,30.14,East,86,0.0,0.0,70,0.00,,---,0.00,VWS V14.01,2013-02-25 13:38:00,
2013-02-25 05:43:00,40.7,31.7,30.14,ESE,105,0.0,0.0,70,0.00,,---,0.00,VWS V14.01,2013-02-25 13:43:00,
2013-02-25 05:48:00,40.8,31.8,30.12,SSE,164,0.0,0.0,70,0.00,,---,0.00,VWS V14.01,2013-02-25 13:48:00,
2013-02-25 05:53:00,40.9,31.5,30.13,SW,230,0.0,0.0,69,0.00,,---,0.00,VWS V14.01,2013-02-25 13:53:00,
2013-02-25 05:58:00,41.3,32.3,30.14,SW,226,0.0,0.0,70,0.00,,---,0.00,VWS V14.01,2013-02-25 13:58:00,
2013-02-25 06:03:00,41.4,32.4,30.13,SW,226,2.0,0.0,70,0.00,,---,0.00,VWS V14.01,2013-02-25 14:03:00,
2013-02-25 06:08:00,41.6,32.2,30.13,SW,221,0.0,0.0,69,0.00,,---,0.00,VWS V14.01,2013-02-25 14:08:00,
2013-02-25 06:13:00,41.9,32.1,30.13,SSW,202,0.0,0.0,68,0.00,,---,0.00,VWS V14.01,2013-02-25 14:13:00,
2013-02-25 06:18:00,42.0,32.2,30.13,SSW,202,0.0,0.0,68,0.00,,---,0.00,VWS V14.01,2013-02-25 14:18:00,
2013-02-25 06:23:00,41.8,32.0,30.14,South,179,0.0,0.0,68,0.00,,---,0.00,VWS V14.01,2013-02-25 14:23:00,
2013-02-25 06:28:00,41.6,31.8,30.14,South,179,0.0,0.0,68,0.00,,---,0.00,VWS V14.01,2013-02-25 14:28:00,
2013-02-25 06:33:00,41.3,31.9,30.14,South,179,0.0,0.0,69,0.00,,---,0.00,VWS V14.01,2013-02-25 14:33:00,
2013-02-25 06:38:00,41.1,31.7,30.15,South,179,0.0,0.0,69,0.00,,---,0.00,VWS V14.01,2013-02-25 14:38:00,
2013-02-25 06:44:00,40.8,31.8,30.15,South,179,0.0,0.0,70,0.00,,---,0.00,VWS V14.01,2013-02-25 14:44:00,
2013-02-25 06:49:00,40.6,31.6,30.15,South,179,0.0,0.0,70,0.00,,---,0.00,VWS V14.01,2013-02-25 14:49:00,
2013-02-25 06:54:00,40.4,31.4,30.15,SW,230,0.0,0.0,70,0.00,,---,0.00,VWS V14.01,2013-02-25 14:54:00,
2013-02-25 06:59:00,40.2,31.2,30.16,ESE,111,0.0,0.0,70,0.00,,---,0.00,VWS V14.01,2013-02-25 14:59:00,
2013-02-25 07:04:00,40.2,31.6,30.16,East,86,0.0,0.0,71,0.00,,---,0.00,VWS V14.01,2013-02-25 15:04:00,
2013-02-25 07:09:00,40.2,31.6,30.16,East,84,0.0,0.0,71,0.00,,---,0.00,VWS V14.01,2013-02-25 15:09:00,
2013-02-25 07:14:00,40.1,31.5,30.16,East,84,0.0,0.0,71,0.00,,---,0.00,VWS V14.01,2013-02-25 15:14:00,
2013-02-25 07:19:00,40.0,31.4,30.17,East,84,0.0,0.0,71,0.00,,---,0.00,VWS V14.01,2013-02-25 15:19:00,
2013-02-25 07:24:00,40.0,31.4,30.16,East,84,0.0,0.0,71,0.00,,---,0.00,VWS V14.01,2013-02-25 15:24:00,
2013-02-25 07:29:00,40.0,31.7,30.16,East,86,0.0,0.0,72,0.00,,---,0.00,VWS V14.01,2013-02-25 15:29:00,
2013-02-25 07:34:00,40.2,31.6,30.16,East,84,0.0,0.0,71,0.00,,---,0.00,VWS V14.01,2013-02-25 15:34:00,
2013-02-25 07:39:00,40.5,32.2,30.17,East,84,0.0,0.0,72,0.00,,---,0.00,VWS V14.01,2013-02-25 15:39:00,
2013-02-25 07:44:00,40.7,32.0,30.16,East,84,0.0,0.0,71,0.00,,---,0.00,VWS V14.01,2013-02-25 15:44:00,
2013-02-25 07:49:00,40.9,32.2,30.17,East,84,0.0,0.0,71,0.00,,---,0.00,VWS V14.01,2013-02-25 15:49:00,
2013-02-25 07:54:00,41.2,32.9,30.17,East,84,0.0,0.0,72,0.00,,---,0.00,VWS V14.01,2013-02-25 15:54:00,
2013-02-25 08:00:00,41.5,33.2,30.17,East,85,0.0,0.0,72,0.00,,---,0.00,VWS V14.01,2013-02-25 16:00:00,
2013-02-25 08:05:00,41.8,33.5,30.18,East,84,0.0,0.0,72,0.00,,---,0.00,VWS V14.01,2013-02-25 16:05:00,
2013-02-25 08:10:00,42.0,33.3,30.17,East,99,0.0,0.0,71,0.00,,---,0.00,VWS V14.01,2013-02-25 16:10:00,
2013-02-25 08:15:00,42.4,33.3,30.17,East,99,0.0,0.0,70,0.00,,---,0.00,VWS V14.01,2013-02-25 16:15:00,
2013-02-25 08:20:00,42.7,33.6,30.17,East,99,0.0,0.0,70,0.00,,---,0.00,VWS V14.01,2013-02-25 16:20:00,
2013-02-25 08:25:00,43.2,34.1,30.17,East,99,0.0,0.0,70,0.00,,---,0.00,VWS V14.01,2013-02-25 16:25:00,
2013-02-25 08:30:00,43.7,34.2,30.17,East,99,0.0,0.0,69,0.00,,---,0.00,VWS V14.01,2013-02-25 16:30:00,
2013-02-25 08:35:00,44.3,34.4,30.18,East,100,0.0,0.0,68,0.00,,---,0.00,VWS V14.01,2013-02-25 16:35:00,
2013-02-25 08:40:00,45.2,34.5,30.17,East,101,0.0,0.0,66,0.00,,---,0.00,VWS V14.01,2013-02-25 16:40:00,
2013-02-25 08:45:00,46.1,35.4,30.17,ENE,66,0.0,0.0,66,0.00,,---,0.00,VWS V14.01,2013-02-25 16:45:00,
2013-02-25 08:50:00,47.0,35.5,30.17,ENE,63,0.0,0.0,64,0.00,,---,0.00,VWS V14.01,2013-02-25 16:50:00,
2013-02-25 08:56:00,48.1,36.1,30.17,ENE,76,0.0,0.0,63,0.00,,---,0.00,VWS V14.01,2013-02-25 16:56:00,
2013-02-25 09:01:00,49.0,35.7,30.16,ENE,69,0.0,0.0,60,0.00,,---,0.00,VWS V14.01,2013-02-25 17:01:00,
2013-02-25 09:06:00,49.9,35.7,30.16,ENE,76,1.0,0.0,58,0.00,,---,0.00,VWS V14.01,2013-02-25 17:06:00,
2013-02-25 09:11:00,50.4,35.8,30.16,East,82,0.0,0.0,57,0.00,,---,0.00,VWS V14.01,2013-02-25 17:11:00,
2013-02-25 09:16:00,51.0,35.9,30.16,East,82,0.0,0.0,56,0.00,,---,0.00,VWS V14.01,2013-02-25 17:16:00,
2013-02-25 09:21:00,51.5,35.9,30.16,ENE,73,0.0,0.0,55,0.00,,---,0.00,VWS V14.01,2013-02-25 17:21:00,
2013-02-25 09:26:00,52.2,36.1,30.16,East,90,1.0,0.0,54,0.00,,---,0.00,VWS V14.01,2013-02-25 17:26:00,
2013-02-25 09:31:00,53.0,36.8,30.15,SW,225,1.0,0.0,54,0.00,,---,0.00,VWS V14.01,2013-02-25 17:31:00,
2013-02-25 09:36:00,53.8,37.6,30.15,SW,223,0.0,0.0,54,0.00,,---,0.00,VWS V14.01,2013-02-25 17:36:00,
2013-02-25 09:41:00,54.5,36.8,30.15,WSW,240,0.0,0.0,51,0.00,,---,0.00,VWS V14.01,2013-02-25 17:41:00,
2013-02-25 09:46:00,55.1,37.8,30.14,South,171,0.0,0.0,52,0.00,,---,0.00,VWS V14.01,2013-02-25 17:46:00,
2013-02-25 09:51:00,55.9,37.0,30.14,North,10,1.0,0.0,49,0.00,,---,0.00,VWS V14.01,2013-02-25 17:51:00,
2013-02-25 09:56:00,56.6,37.7,30.14,SW,229,0.0,0.0,49,0.00,,---,0.00,VWS V14.01,2013-02-25 17:56:00,
2013-02-25 10:01:00,57.1,37.1,30.14,WSW,244,0.0,0.0,47,0.00,,---,0.00,VWS V14.01,2013-02-25 18:01:00,
2013-02-25 10:06:00,57.5,36.3,30.14,NNW,337,1.0,0.0,45,0.00,,---,0.00,VWS V14.01,2013-02-25 18:06:00,
2013-02-25 10:11:00,57.8,36.6,30.14,West,265,0.0,0.0,45,0.00,,---,0.00,VWS V14.01,2013-02-25 18:11:00,
2013-02-25 10:16:00,58.0,36.2,30.14,North,350,2.0,0.0,44,0.00,,---,0.00,VWS V14.01,2013-02-25 18:16:00,
2013-02-25 10:21:00,58.1,36.3,30.14,WSW,244,0.0,0.0,44,0.00,,---,0.00,VWS V14.01,2013-02-25 18:21:00,
2013-02-25 10:26:00,58.4,35.4,30.14,North,9,1.0,0.0,42,0.00,,---,0.00,VWS V14.01,2013-02-25 18:26:00,
2013-02-25 10:31:00,58.7,35.7,30.14,WNW,301,2.0,0.0,42,0.00,,---,0.00,VWS V14.01,2013-02-25 18:31:00,
2013-02-25 10:36:00,58.9,35.3,30.15,WNW,284,1.0,0.0,41,0.00,,---,0.00,VWS V14.01,2013-02-25 18:36:00,
2013-02-25 10:42:00,59.1,35.4,30.14,NNW,331,3.0,0.0,41,0.00,,---,0.00,VWS V14.01,2013-02-25 18:42:00,
2013-02-25 10:47:00,59.2,35.5,30.14,WNW,300,2.0,0.0,41,0.00,,---,0.00,VWS V14.01,2013-02-25 18:47:00,
2013-02-25 10:52:00,59.2,34.9,30.14,SSW,207,2.0,0.0,40,0.00,,---,0.00,VWS V14.01,2013-02-25 18:52:00,
2013-02-25 10:57:00,59.1,35.4,30.14,NNW,342,2.0,0.0,41,0.00,,---,0.00,VWS V14.01,2013-02-25 18:57:00,
2013-02-25 11:02:00,59.3,35.0,30.14,WSW,238,0.0,0.0,40,0.00,,---,0.00,VWS V14.01,2013-02-25 19:02:00,
2013-02-25 11:07:00,59.6,35.3,30.14,NNW,339,1.0,0.0,40,0.00,,---,0.00,VWS V14.01,2013-02-25 19:07:00,
2013-02-25 11:12:00,59.8,34.8,30.14,North,349,2.0,0.0,39,0.00,,---,0.00,VWS V14.01,2013-02-25 19:12:00,
2013-02-25 11:17:00,60.1,34.4,30.14,NNE,31,4.0,0.0,38,0.00,,---,0.00,VWS V14.01,2013-02-25 19:17:00,
2013-02-25 11:22:00,60.4,34.0,30.13,WSW,247,1.0,0.0,37,0.00,,---,0.00,VWS V14.01,2013-02-25 19:22:00,
2013-02-25 11:27:00,60.7,34.3,30.13,NW,316,0.0,0.0,37,0.00,,---,0.00,VWS V14.01,2013-02-25 19:27:00,
2013-02-25 11:32:00,61.0,33.9,30.13,West,280,2.0,0.0,36,0.00,,---,0.00,VWS V14.01,2013-02-25 19:32:00,
2013-02-25 11:38:00,61.1,35.3,30.13,NW,304,3.0,0.0,38,0.00,,---,0.00,VWS V14.01,2013-02-25 19:38:00,
2013-02-25 11:43:00,61.3,34.8,30.13,NNW,329,1.0,0.0,37,0.00,,---,0.00,VWS V14.01,2013-02-25 19:43:00,
2013-02-25 11:48:00,61.8,35.3,30.13,West,272,0.0,0.0,37,0.00,,---,0.00,VWS V14.01,2013-02-25 19:48:00,
2013-02-25 11:53:00,61.7,35.2,30.12,West,267,1.0,0.0,37,0.00,,---,0.00,VWS V14.01,2013-02-25 19:53:00,
2013-02-25 11:58:00,61.6,34.4,30.12,NNW,340,0.0,0.0,36,0.00,,---,0.00,VWS V14.01,2013-02-25 19:58:00,
2013-02-25 12:03:00,61.7,35.2,30.12,NNW,342,0.0,0.0,37,0.00,,---,0.00,VWS V14.01,2013-02-25 20:03:00,
2013-02-25 12:08:00,61.6,35.1,30.12,WNW,284,0.0,0.0,37,0.00,,---,0.00,VWS V14.01,2013-02-25 20:08:00,
2013-02-25 12:13:00,61.7,35.2,30.12,NW,323,0.0,0.0,37,0.00,,---,0.00,VWS V14.01,2013-02-25 20:13:00,
2013-02-25 12:18:00,62.1,34.8,30.12,North,355,2.0,0.0,36,0.00,,---,0.00,VWS V14.01,2013-02-25 20:18:00,
2013-02-25 12:23:00,62.4,34.4,30.12,WNW,288,0.0,0.0,35,0.00,,---,0.00,VWS V14.01,2013-02-25 20:23:00,
2013-02-25 12:28:00,62.6,34.6,30.12,NE,37,0.0,0.0,35,0.00,,---,0.00,VWS V14.01,2013-02-25 20:28:00,
2013-02-25 12:33:00,62.8,34.8,30.12,NNW,347,0.0,0.0,35,0.00,,---,0.00,VWS V14.01,2013-02-25 20:33:00,
2013-02-25 12:38:00,63.3,35.9,30.12,NW,325,3.0,0.0,36,0.00,,---,0.00,VWS V14.01,2013-02-25 20:38:00,
2013-02-25 12:43:00,63.4,35.3,30.12,NNW,341,1.0,0.0,35,0.00,,---,0.00,VWS V14.01,2013-02-25 20:43:00,
2013-02-25 12:49:00,63.5,35.4,30.12,NNE,22,2.0,0.0,35,0.00,,---,0.00,VWS V14.01,2013-02-25 20:49:00,
2013-02-25 12:54:00,63.6,36.9,30.12,NNW,348,0.0,0.0,37,0.00,,---,0.00,VWS V14.01,2013-02-25 20:54:00,
2013-02-25 12:59:00,64.0,35.8,30.12,NE,40,1.0,0.0,35,0.00,,---,0.00,VWS V14.01,2013-02-25 20:59:00,
2013-02-25 13:04:00,64.4,36.2,30.12,North,5,3.0,0.0,35,0.00,,---,0.00,VWS V14.01,2013-02-25 21:04:00,
2013-02-25 13:09:00,65.0,36.0,30.11,North,10,0.0,0.0,34,0.00,,---,0.00,VWS V14.01,2013-02-25 21:09:00,
2013-02-25 13:14:00,65.5,35.7,30.11,SW,233,0.0,0.0,33,0.00,,---,0.00,VWS V14.01,2013-02-25 21:14:00,
2013-02-25 13:19:00,65.1,37.5,30.11,NNE,25,1.0,0.0,36,0.00,,---,0.00,VWS V14.01,2013-02-25 21:19:00,
2013-02-25 13:24:00,65.2,36.2,30.11,NE,53,2.0,0.0,34,0.00,,---,0.00,VWS V14.01,2013-02-25 21:24:00,
2013-02-25 13:29:00,65.2,36.2,30.11,NNE,32,4.0,0.0,34,0.00,,---,0.00,VWS V14.01,2013-02-25 21:29:00,
2013-02-25 13:34:00,65.3,34.7,30.10,NW,314,0.0,0.0,32,0.00,,---,0.00,VWS V14.01,2013-02-25 21:34:00,
2013-02-25 13:39:00,65.4,34.8,30.11,East,101,1.0,0.0,32,0.00,,---,0.00,VWS V14.01,2013-02-25 21:39:00,
2013-02-25 13:44:00,65.2,34.6,30.11,NNE,27,3.0,0.0,32,0.00,,---,0.00,VWS V14.01,2013-02-25 21:44:00,
2013-02-25 13:50:00,65.8,35.2,30.10,NNW,327,0.0,0.0,32,0.00,,---,0.00,VWS V14.01,2013-02-25 21:50:00,
2013-02-25 13:54:00,65.7,34.3,30.11,NNW,342,3.0,0.0,31,0.00,,---,0.00,VWS V14.01,2013-02-25 21:54:00,
2013-02-25 14:00:00,66.3,34.0,30.10,North,360,0.0,0.0,30,0.00,,---,0.00,VWS V14.01,2013-02-25 22:00:00,
2013-02-25 14:05:00,66.6,35.0,30.10,NNE,17,2.0,0.0,31,0.00,,---,0.00,VWS V14.01,2013-02-25 22:05:00,
2013-02-25 14:10:00,66.3,34.8,30.10,ENE,57,2.0,0.0,31,0.00,,---,0.00,VWS V14.01,2013-02-25 22:10:00,
2013-02-25 14:15:00,66.4,35.7,30.10,North,5,0.0,0.0,32,0.00,,---,0.00,VWS V14.01,2013-02-25 22:15:00,
2013-02-25 14:20:00,66.5,35.8,30.10,NE,55,2.0,0.0,32,0.00,,---,0.00,VWS V14.01,2013-02-25 22:20:00,
2013-02-25 14:25:00,66.3,35.6,30.10,West,281,5.0,0.0,32,0.00,,---,0.00,VWS V14.01,2013-02-25 22:25:00,
2013-02-25 14:30:00,65.4,35.6,30.10,NNW,336,0.0,0.0,33,0.00,,---,0.00,VWS V14.01,2013-02-25 22:30:00,
2013-02-25 14:35:00,65.4,35.6,30.10,NW,323,4.0,0.0,33,0.00,,---,0.00,VWS V14.01,2013-02-25 22:35:00,
2013-02-25 14:40:00,65.6,37.2,30.10,WNW,284,2.0,0.0,35,0.00,,---,0.00,VWS V14.01,2013-02-25 22:40:00,
2013-02-25 14:45:00,65.5,37.2,30.10,ENE,68,3.0,0.0,35,0.00,,---,0.00,VWS V14.01,2013-02-25 22:45:00,
2013-02-25 14:50:00,65.2,36.2,30.09,NE,53,2.0,0.0,34,0.00,,---,0.00,VWS V14.01,2013-02-25 22:50:00,
2013-02-25 14:55:00,64.7,36.4,30.09,NNE,28,3.0,0.0,35,0.00,,---,0.00,VWS V14.01,2013-02-25 22:55:00,
2013-02-25 15:00:00,64.2,36.0,30.09,ESE,117,4.0,0.0,35,0.00,,---,0.00,VWS V14.01,2013-02-25 23:00:00,
2013-02-25 15:05:00,63.9,35.0,30.09,ENE,60,1.0,0.0,34,0.00,,---,0.00,VWS V14.01,2013-02-25 23:05:00,
2013-02-25 15:10:00,63.9,36.5,30.09,ENE,67,0.0,0.0,36,0.00,,---,0.00,VWS V14.01,2013-02-25 23:10:00,
2013-02-25 15:15:00,63.8,37.7,30.09,NNE,28,3.0,0.0,38,0.00,,---,0.00,VWS V14.01,2013-02-25 23:15:00,
2013-02-25 15:20:00,63.6,36.2,30.09,NNW,338,0.0,0.0,36,0.00,,---,0.00,VWS V14.01,2013-02-25 23:20:00,
2013-02-25 15:25:00,63.1,36.4,30.09,ENE,74,1.0,0.0,37,0.00,,---,0.00,VWS V14.01,2013-02-25 23:25:00,
2013-02-25 15:30:00,62.7,36.8,30.09,NE,51,0.0,0.0,38,0.00,,---,0.00,VWS V14.01,2013-02-25 23:30:00,
2013-02-25 15:36:00,62.3,35.0,30.09,ESE,107,2.0,0.0,36,0.00,,---,0.00,VWS V14.01,2013-02-25 23:36:00,
2013-02-25 15:41:00,61.8,36.0,30.09,ENE,61,0.0,0.0,38,0.00,,---,0.00,VWS V14.01,2013-02-25 23:41:00,
2013-02-25 15:46:00,61.7,36.5,30.09,NNE,18,1.0,0.0,39,0.00,,---,0.00,VWS V14.01,2013-02-25 23:46:00,
2013-02-25 15:51:00,61.5,35.7,30.08,NE,42,0.0,0.0,38,0.00,,---,0.00,VWS V14.01,2013-02-25 23:51:00,
2013-02-25 15:56:00,61.4,34.9,30.08,NE,53,1.0,0.0,37,0.00,,---,0.00,VWS V14.01,2013-02-25 23:56:00,
2013-02-25 16:01:00,61.2,34.7,30.08,NE,38,1.0,0.0,37,0.00,,---,0.00,VWS V14.01,2013-02-26 00:01:00,
2013-02-25 16:06:00,61.0,35.2,30.08,NE,55,2.0,0.0,38,0.00,,---,0.00,VWS V14.01,2013-02-26 00:06:00,
2013-02-25 16:11:00,60.8,34.4,30.07,ENE,57,1.0,0.0,37,0.00,,---,0.00,VWS V14.01,2013-02-26 00:11:00,
2013-02-25 16:16:00,60.5,34.8,30.07,ENE,59,8.0,0.0,38,0.00,,---,0.00,VWS V14.01,2013-02-26 00:16:00,
2013-02-25 16:21:00,60.2,33.2,30.07,NNE,28,4.0,0.0,36,0.00,,---,0.00,VWS V14.01,2013-02-26 00:21:00,
2013-02-25 16:26:00,60.0,33.7,30.07,NNE,19,3.0,0.0,37,0.00,,---,0.00,VWS V14.01,2013-02-26 00:26:00,
2013-02-25 16:31:00,59.8,34.2,30.07,East,79,1.0,0.0,38,0.00,,---,0.00,VWS V14.01,2013-02-26 00:31:00,
2013-02-25 16:36:00,59.6,34.0,30.07,East,98,4.0,0.0,38,0.00,,---,0.00,VWS V14.01,2013-02-26 00:36:00,
2013-02-25 16:41:00,59.5,33.2,30.07,North,11,2.0,0.0,37,0.00,,---,0.00,VWS V14.01,2013-02-26 00:41:00,
2013-02-25 16:46:00,59.3,32.4,30.07,NNE,29,1.0,0.0,36,0.00,,---,0.00,VWS V14.01,2013-02-26 00:46:00,
2013-02-25 16:51:00,59.1,32.9,30.07,East,85,1.0,0.0,37,0.00,,---,0.00,VWS V14.01,2013-02-26 00:51:00,
2013-02-25 16:57:00,59.0,32.8,30.07,ENE,61,1.0,0.0,37,0.00,,---,0.00,VWS V14.01,2013-02-26 00:57:00,
2013-02-25 17:02:00,58.9,32.0,30.07,ENE,67,2.0,0.0,36,0.00,,---,0.00,VWS V14.01,2013-02-26 01:02:00,
2013-02-25 17:07:00,58.7,31.1,30.07,ENE,70,1.0,0.0,35,0.00,,---,0.00,VWS V14.01,2013-02-26 01:07:00,
2013-02-25 17:12:00,58.6,32.4,30.07,East,96,0.0,0.0,37,0.00,,---,0.00,VWS V14.01,2013-02-26 01:12:00,
2013-02-25 17:17:00,58.4,32.2,30.07,NNE,18,2.0,0.0,37,0.00,,---,0.00,VWS V14.01,2013-02-26 01:17:00,
2013-02-25 17:22:00,58.1,32.7,30.07,NNE,30,1.0,0.0,38,0.00,,---,0.00,VWS V14.01,2013-02-26 01:22:00,
2013-02-25 17:27:00,57.9,32.5,30.07,NE,40,1.0,0.0,38,0.00,,---,0.00,VWS V14.01,2013-02-26 01:27:00,
2013-02-25 17:32:00,57.7,32.9,30.07,NE,44,0.0,0.0,39,0.00,,---,0.00,VWS V14.01,2013-02-26 01:32:00,
2013-02-25 17:37:00,57.4,32.7,30.07,ENE,77,1.0,0.0,39,0.00,,---,0.00,VWS V14.01,2013-02-26 01:37:00,
2013-02-25 17:42:00,57.2,33.1,30.07,ENE,60,1.0,0.0,40,0.00,,---,0.00,VWS V14.01,2013-02-26 01:42:00,
2013-02-25 17:47:00,56.9,32.8,30.07,East,79,1.0,0.0,40,0.00,,---,0.00,VWS V14.01,2013-02-26 01:47:00,
2013-02-25 17:52:00,56.7,32.7,30.07,East,86,1.0,0.0,40,0.00,,---,0.00,VWS V14.01,2013-02-26 01:52:00,
2013-02-25 17:58:00,56.5,33.1,30.07,NE,37,1.0,0.0,41,0.00,,---,0.00,VWS V14.01,2013-02-26 01:58:00,
2013-02-25 18:03:00,56.2,32.8,30.07,East,85,0.0,0.0,41,0.00,,---,0.00,VWS V14.01,2013-02-26 02:03:00,
2013-02-25 18:08:00,56.0,32.7,30.07,ENE,69,1.0,0.0,41,0.00,,---,0.00,VWS V14.01,2013-02-26 02:08:00,
2013-02-25 18:13:00,55.7,31.8,30.07,East,98,2.0,0.0,40,0.00,,---,0.00,VWS V14.01,2013-02-26 02:13:00,
2013-02-25 18:18:00,55.4,31.5,30.07,East,96,2.0,0.0,40,0.00,,---,0.00,VWS V14.01,2013-02-26 02:18:00,
2013-02-25 18:23:00,55.2,31.3,30.07,East,87,3.0,0.0,40,0.00,,---,0.00,VWS V14.01,2013-02-26 02:23:00,
2013-02-25 18:28:00,55.0,30.5,30.07,NE,50,3.0,0.0,39,0.00,,---,0.00,VWS V14.01,2013-02-26 02:28:00,
2013-02-25 18:33:00,54.9,30.4,30.07,ENE,61,1.0,0.0,39,0.00,,---,0.00,VWS V14.01,2013-02-26 02:33:00,
2013-02-25 18:38:00,54.8,29.7,30.07,East,98,2.0,0.0,38,0.00,,---,0.00,VWS V14.01,2013-02-26 02:38:00,
2013-02-25 18:43:00,54.7,29.6,30.07,ESE,102,1.0,0.0,38,0.00,,---,0.00,VWS V14.01,2013-02-26 02:43:00,
2013-02-25 18:48:00,54.5,29.4,30.07,East,85,0.0,0.0,38,0.00,,---,0.00,VWS V14.01,2013-02-26 02:48:00,
2013-02-25 18:53:00,54.3,28.6,30.07,East,81,0.0,0.0,37,0.00,,---,0.00,VWS V14.01,2013-02-26 02:53:00,
2013-02-25 18:58:00,54.1,29.1,30.07,ENE,67,0.0,0.0,38,0.00,,---,0.00,VWS V14.01,2013-02-26 02:58:00,
2013-02-25 19:03:00,53.8,30.1,30.07,ENE,67,0.0,0.0,40,0.00,,---,0.00,VWS V14.01,2013-02-26 03:03:00,
2013-02-25 19:08:00,53.2,30.1,30.07,ENE,68,0.0,0.0,41,0.00,,---,0.00,VWS V14.01,2013-02-26 03:08:00,
2013-02-25 19:14:00,52.5,30.1,30.08,ENE,67,0.0,0.0,42,0.00,,---,0.00,VWS V14.01,2013-02-26 03:14:00,
2013-02-25 19:19:00,52.0,30.2,30.08,ENE,67,0.0,0.0,43,0.00,,---,0.00,VWS V14.01,2013-02-26 03:19:00,
2013-02-25 19:24:00,51.6,29.3,30.08,ENE,67,0.0,0.0,42,0.00,,---,0.00,VWS V14.01,2013-02-26 03:24:00,
2013-02-25 19:29:00,51.4,30.2,30.08,East,80,1.0,0.0,44,0.00,,---,0.00,VWS V14.01,2013-02-26 03:29:00,
2013-02-25 19:34:00,51.0,30.4,30.08,ENE,77,0.0,0.0,45,0.00,,---,0.00,VWS V14.01,2013-02-26 03:34:00,
2013-02-25 19:39:00,50.5,29.4,30.08,ENE,77,0.0,0.0,44,0.00,,---,0.00,VWS V14.01,2013-02-26 03:39:00,
2013-02-25 19:44:00,50.1,29.0,30.08,ENE,77,0.0,0.0,44,0.00,,---,0.00,VWS V14.01,2013-02-26 03:44:00,
2013-02-25 19:49:00,49.8,28.8,30.08,ENE,77,0.0,0.0,44,0.00,,---,0.00,VWS V14.01,2013-02-26 03:49:00,
2013-02-25 19:54:00,49.6,30.7,30.08,ENE,77,0.0,0.0,48,0.00,,---,0.00,VWS V14.01,2013-02-26 03:54:00,
2013-02-25 19:59:00,49.2,30.4,30.08,ESE,115,1.0,0.0,48,0.00,,---,0.00,VWS V14.01,2013-02-26 03:59:00,
2013-02-25 20:04:00,48.9,30.6,30.08,ESE,106,0.0,0.0,49,0.00,,---,0.00,VWS V14.01,2013-02-26 04:04:00,
2013-02-25 20:09:00,48.6,31.8,30.08,ESE,106,0.0,0.0,52,0.00,,---,0.00,VWS V14.01,2013-02-26 04:09:00,
2013-02-25 20:15:00,48.4,30.6,30.08,ESE,114,0.0,0.0,50,0.00,,---,0.00,VWS V14.01,2013-02-26 04:15:00,
2013-02-25 20:20:00,48.2,30.5,30.08,ESE,122,0.0,0.0,50,0.00,,---,0.00,VWS V14.01,2013-02-26 04:20:00,
2013-02-25 20:25:00,48.1,30.8,30.09,East,97,1.0,0.0,51,0.00,,---,0.00,VWS V14.01,2013-02-26 04:25:00,
2013-02-25 20:30:00,48.1,31.3,30.08,East,92,0.0,0.0,52,0.00,,---,0.00,VWS V14.01,2013-02-26 04:30:00,
2013-02-25 20:35:00,47.9,30.7,30.08,East,93,0.0,0.0,51,0.00,,---,0.00,VWS V14.01,2013-02-26 04:35:00,
2013-02-25 20:40:00,47.9,30.7,30.08,East,96,1.0,0.0,51,0.00,,---,0.00,VWS V14.01,2013-02-26 04:40:00,
2013-02-25 20:45:00,47.9,30.7,30.08,East,97,1.0,0.0,51,0.00,,---,0.00,VWS V14.01,2013-02-26 04:45:00,
2013-02-25 20:50:00,47.9,31.1,30.08,ESE,102,2.0,0.0,52,0.00,,---,0.00,VWS V14.01,2013-02-26 04:50:00,
2013-02-25 20:55:00,47.8,31.5,30.08,East,100,0.0,0.0,53,0.00,,---,0.00,VWS V14.01,2013-02-26 04:55:00,
2013-02-25 21:00:00,47.7,31.4,30.09,East,99,0.0,0.0,53,0.00,,---,0.00,VWS V14.01,2013-02-26 05:00:00,
2013-02-25 21:05:00,47.4,31.6,30.08,East,96,1.0,0.0,54,0.00,,---,0.00,VWS V14.01,2013-02-26 05:05:00,
2013-02-25 21:11:00,47.1,31.3,30.08,ESE,107,0.0,0.0,54,0.00,,---,0.00,VWS V14.01,2013-02-26 05:11:00,
2013-02-25 21:16:00,47.0,31.2,30.08,ESE,104,1.0,0.0,54,0.00,,---,0.00,VWS V14.01,2013-02-26 05:16:00,
2013-02-25 21:21:00,46.9,31.6,30.09,East,96,0.0,0.0,55,0.00,,---,0.00,VWS V14.01,2013-02-26 05:21:00,
2013-02-25 21:26:00,46.7,31.9,30.09,East,90,1.0,0.0,56,0.00,,---,0.00,VWS V14.01,2013-02-26 05:26:00,
2013-02-25 21:31:00,46.6,31.8,30.08,ESE,109,2.0,0.0,56,0.00,,---,0.00,VWS V14.01,2013-02-26 05:31:00,
2013-02-25 21:36:00,46.6,31.8,30.08,ESE,110,2.0,0.0,56,0.00,,---,0.00,VWS V14.01,2013-02-26 05:36:00,
2013-02-25 21:41:00,46.5,32.1,30.08,East,90,5.0,0.0,57,0.00,,---,0.00,VWS V14.01,2013-02-26 05:41:00,
2013-02-25 21:46:00,46.4,32.0,30.08,ENE,78,0.0,0.0,57,0.00,,---,0.00,VWS V14.01,2013-02-26 05:46:00,
2013-02-25 21:51:00,46.2,32.2,30.08,East,100,0.0,0.0,58,0.00,,---,0.00,VWS V14.01,2013-02-26 05:51:00,
2013-02-25 21:56:00,45.8,32.3,30.08,East,92,0.0,0.0,59,0.00,,---,0.00,VWS V14.01,2013-02-26 05:56:00,
2013-02-25 22:01:00,45.5,33.2,30.08,ENE,69,0.0,0.0,62,0.00,,---,0.00,VWS V14.01,2013-02-26 06:01:00,
2013-02-25 22:06:00,45.3,32.2,30.08,ENE,63,0.0,0.0,60,0.00,,---,0.00,VWS V14.01,2013-02-26 06:06:00,
2013-02-25 22:11:00,45.2,32.2,30.08,East,101,0.0,0.0,60,0.00,,---,0.00,VWS V14.01,2013-02-26 06:11:00,
2013-02-25 22:16:00,45.2,32.2,30.08,East,91,0.0,0.0,60,0.00,,---,0.00,VWS V14.01,2013-02-26 06:16:00,
2013-02-25 22:21:00,45.2,32.2,30.08,East,90,0.0,0.0,60,0.00,,---,0.00,VWS V14.01,2013-02-26 06:21:00,
2013-02-25 22:26:00,45.3,32.2,30.08,East,89,2.0,0.0,60,0.00,,---,0.00,VWS V14.01,2013-02-26 06:26:00,
2013-02-25 22:31:00,45.4,32.3,30.08,East,96,4.0,0.0,60,0.00,,---,0.00,VWS V14.01,2013-02-26 06:31:00,
2013-02-25 22:36:00,45.4,32.3,30.08,East,92,0.0,0.0,60,0.00,,---,0.00,VWS V14.01,2013-02-26 06:36:00,
2013-02-25 22:42:00,45.4,32.8,30.08,East,101,0.0,0.0,61,0.00,,---,0.00,VWS V14.01,2013-02-26 06:42:00,
2013-02-25 22:47:00,45.3,32.7,30.08,East,96,2.0,0.0,61,0.00,,---,0.00,VWS V14.01,2013-02-26 06:47:00,
2013-02-25 22:52:00,45.3,32.7,30.08,East,80,2.0,0.0,61,0.00,,---,0.00,VWS V14.01,2013-02-26 06:52:00,
2013-02-25 22:57:00,45.3,32.7,30.09,ENE,78,1.0,0.0,61,0.00,,---,0.00,VWS V14.01,2013-02-26 06:57:00,
2013-02-25 23:02:00,45.3,32.7,30.09,East,98,4.0,0.0,61,0.00,,---,0.00,VWS V14.01,2013-02-26 07:02:00,
2013-02-25 23:07:00,45.2,33.0,30.08,East,94,2.0,0.0,62,0.00,,---,0.00,VWS V14.01,2013-02-26 07:07:00,
2013-02-25 23:12:00,45.2,33.0,30.08,East,86,2.0,0.0,62,0.00,,---,0.00,VWS V14.01,2013-02-26 07:12:00,
2013-02-25 23:17:00,45.1,32.9,30.08,East,96,5.0,0.0,62,0.00,,---,0.00,VWS V14.01,2013-02-26 07:17:00,
2013-02-25 23:22:00,45.0,32.8,30.08,ESE,105,7.0,0.0,62,0.00,,---,0.00,VWS V14.01,2013-02-26 07:22:00,
2013-02-25 23:27:00,44.8,33.0,30.08,East,98,2.0,0.0,63,0.00,,---,0.00,VWS V14.01,2013-02-26 07:27:00,
2013-02-25 23:32:00,44.6,32.8,30.08,East,92,4.0,0.0,63,0.00,,---,0.00,VWS V14.01,2013-02-26 07:32:00,
2013-02-25 23:37:00,44.5,32.7,30.08,ESE,104,2.0,0.0,63,0.00,,---,0.00,VWS V14.01,2013-02-26 07:37:00,
2013-02-25 23:42:00,44.4,32.6,30.08,East,100,2.0,0.0,63,0.00,,---,0.00,VWS V14.01,2013-02-26 07:42:00,
2013-02-25 23:47:00,44.3,32.9,30.09,ESE,107,2.0,0.0,64,0.00,,---,0.00,VWS V14.01,2013-02-26 07:47:00,
2013-02-25 23:52:00,44.2,32.8,30.09,ESE,104,0.0,0.0,64,0.00,,---,0.00,VWS V14.01,2013-02-26 07:52:00,
2013-02-25 23:57:00,44.2,32.8,30.08,East,95,2.0,0.0,64,0.00,,---,0.00,VWS V14.01,2013-02-26 07:57:00,